Wind from 250 at 9 knots

Air temperature 3.0° C
Visibility: greater than 5.4 NM
Dewpoint -4.0° C

Last reported at 2014-Apr-20 07:20 UTC.
Time now 2014-Apr-20 08:46 UTC

Location: N 68°37' E 027°25'.
View on Google Maps.

See reports from other nearby stations

Tides Stations Pressure Air Temp Water Temp Dewpoint Dewpoint depression Visibility Wind Speed Wind Dir Waves Ship positions

  
sailing weather and tide predictions

IVALO weather

date/time (UTC)wind fromknots sea level pressurealtimeterstation pressurevisibilityair tempwater tempwave heightnotes
2014-Apr-20 07:20 250 9 5.4 3.0
2014-Apr-20 06:50 280 7 5.4 3.0
2014-Apr-20 06:21 270 7 5.4 3.0
2014-Apr-20 05:50 300 9 5.4 2.0
2014-Apr-20 05:20 290 10 5.4 2.0
2014-Apr-20 04:50 290 6 5.4 2.0
2014-Apr-20 04:20 290 6 2.0
2014-Apr-20 03:50 290 10 5.4 2.0
2014-Apr-20 03:20 290 7 5.4 1.0
2014-Apr-20 02:50 270 11 5.4 2.0
2014-Apr-20 02:20 280 15 gusting 25 5.4 2.0
2014-Apr-20 01:50 270 14 5.4 2.0
2014-Apr-20 01:20 260 16 2.0
2014-Apr-20 00:50 260 17 2.0
2014-Apr-20 00:20 260 15 2.0
2014-Apr-19 23:50 250 19 gusting 27 3.0
2014-Apr-19 23:20 250 15 3.0
2014-Apr-19 22:50 250 15 3.0
2014-Apr-19 22:20 250 15 3.0
2014-Apr-19 21:50 250 19 4.0
2014-Apr-19 21:20 240 15 4.0
2014-Apr-19 20:50 240 15 4.0
2014-Apr-19 20:20 240 17 5.0
2014-Apr-19 19:50 230 13 5.0
2014-Apr-19 19:20 240 13 5.0
2014-Apr-19 18:50 240 12 5.0
2014-Apr-19 18:20 230 12 5.0
2014-Apr-19 17:50 230 14 5.0
2014-Apr-19 17:20 260 12 6.0
2014-Apr-19 16:50 250 17 7.0
2014-Apr-19 16:20 250 14 5.4 7.0
2014-Apr-19 15:50 250 17 gusting 27 5.4 8.0
2014-Apr-19 15:20 240 18 5.4 7.0 Light rain showers.
2014-Apr-19 14:50 240 18 gusting 30 5.4 8.0 Light rain showers.
2014-Apr-19 14:20 230 17 9.0
2014-Apr-19 13:50 220 19 9.0
2014-Apr-19 13:20 220 19 5.4 8.0
2014-Apr-19 12:50 250 18 5.4 9.0 Light rain showers.
2014-Apr-19 12:20 240 13 5.4 9.0 Light rain showers.
2014-Apr-19 11:50 220 15 gusting 26 5.4 9.0 Light drizzle.
2014-Apr-19 11:20 220 20 gusting 30 10.0
2014-Apr-19 10:50 210 16 10.0
2014-Apr-19 10:20 200 17 gusting 27 9.0
2014-Apr-19 09:50 210 23 8.0
2014-Apr-19 09:20 210 20 8.0
2014-Apr-19 08:50 210 19 gusting 29 7.0
2014-Apr-19 08:20 210 19 6.0
2014-Apr-19 07:50 210 19 6.0
2014-Apr-19 07:20 210 13 5.0
2014-Apr-19 06:50 200 13 5.0
2014-Apr-19 06:20 200 13 4.0
2014-Apr-19 05:50 200 16 4.0
2014-Apr-19 05:20 200 14 4.0
2014-Apr-19 04:50 200 12 3.0
2014-Apr-19 04:20 200 15 gusting 25 3.0
2014-Apr-19 03:50 210 15 gusting 25 3.0
2014-Apr-19 03:20 200 15 3.0
2014-Apr-19 02:50 210 15 2.0
2014-Apr-19 02:20 210 15 2.0
2014-Apr-19 01:50 210 13 2.0
2014-Apr-19 01:20 220 14 2.0
2014-Apr-19 00:50 220 14 2.0
2014-Apr-19 00:20 220 11 2.0
2014-Apr-18 23:50 210 9 1.0
2014-Apr-18 23:20 200 11 2.0
2014-Apr-18 22:50 210 10 1.0
2014-Apr-18 22:20 210 9 1.0
2014-Apr-18 21:50 200 11 1.0
2014-Apr-18 21:20 220 3 -0.0
2014-Apr-18 20:50 220 6 -0.0
2014-Apr-18 20:20 210 4 -1.0
2014-Apr-18 19:50 -0.0
2014-Apr-18 19:20 210 1 -0.0
2014-Apr-18 18:50 190 5 2.0
2014-Apr-18 18:28 200 4 2.0
2014-Apr-18 18:20 210 5 2.0
2014-Apr-18 17:50 240 8 3.0
2014-Apr-18 17:20 240 7 3.0
2014-Apr-18 16:50 250 8 3.0
2014-Apr-18 16:20 250 11 4.0
2014-Apr-18 15:50 260 10 4.0
2014-Apr-18 15:20 260 10 4.0
2014-Apr-18 14:50 250 11 4.0
2014-Apr-18 14:20 260 11 4.0
2014-Apr-18 13:50 240 12 5.0
2014-Apr-18 13:20 230 13 5.0
2014-Apr-18 12:50 250 10 5.0
2014-Apr-18 12:20 280 10 5.0
2014-Apr-18 11:50 270 10 5.4 5.0
2014-Apr-18 11:20 260 12 5.4 5.0
2014-Apr-18 10:50 270 9 5.4 5.0
2014-Apr-18 10:20 310 7 5.4 5.0
2014-Apr-18 09:50 260 8 5.4 5.0
2014-Apr-18 09:20 300 7 5.4 4.0
2014-Apr-18 08:50 310 5 5.4 4.0
2014-Apr-18 08:20 330 6 5.4 3.0